Flag for Russia Weather past 2 weeks in Kemerovo, Russia

Now
84 °F

Sunny.


Feels Like: 85 °F
Forecast: 60 / 81 °F
Wind: 13 mph from Southwest

Location: Kemerovo

Current Time: Jul 22, 2014 at 2:42:22 PM

Latest Report: Jul 22, 2014 at 2:00 PM


Visibility: 10 mi

Pressure: 29.62 "Hg

Humidity: 48%

Dew point: 63 °F

Location of KemerovoLocation

Historic Weather in Kemerovo — Graph

°F

Kemerovo temperature yesterday

Maximum temperature yesterday: 88 °F (at 3:00 PM)
Minimum temperature yesterday: 64 °F (at 5:00 AM)
Average temperature yesterday: 77 °F

Past Weeks' High & Low Weather Summary

 TemperatureHumidityPressure
High93 °F (Jul 12, 3:00 PM)100% (Jul 11, 5:00 AM)29.95 "Hg (Jul 11, 5:00 AM)
Low54 °F (Jul 15, 4:00 AM)29% (Jul 7, 3:00 PM)29.47 "Hg (Jul 14, 2:00 AM)
Average72 °F63%29.72 "Hg
* Reported Jul 7 1:00 PM — Jul 22 1:30 PM, Kemerovo, Weather by CustomWeather, © 2014

Note: Actual official high and low records may vary slightly from our data, if they occured in-between our weather recording intervals... More about our weather records

Advertising

Kemerovo weather history for previous 24 hours

 ConditionsComfort  
Time TempWeatherWind HumidityBarometerVisibility
1:30 PM
Jul 22
84 °FSunny.13 mph48%29.62 "Hg10 mi
1:00 PM84 °FSunny.10 mph48%29.62 "Hg10 mi
12:30 PM81 °FSunny.6 mph58%29.59 "Hg10 mi
12:00 PM81 °FSunny.6 mph58%29.59 "Hg10 mi
11:30 AM75 °FSunny.8 mph69%29.59 "Hg10 mi
11:00 AM75 °FSunny.6 mph69%29.59 "Hg10 mi
10:30 AM75 °FSunny.6 mph65%29.59 "Hg10 mi
10:00 AM75 °FSunny.8 mph65%29.59 "Hg10 mi
9:30 AM73 °FSunny.6 mph69%29.59 "Hg10 mi
9:00 AM73 °FSunny.6 mph69%29.59 "Hg10 mi
8:30 AM70 °FSunny.8 mph78%29.59 "Hg10 mi
8:00 AM70 °FSunny.8 mph78%29.59 "Hg10 mi
7:30 AM68 °FSunny.3 mph83%29.59 "Hg10 mi
7:00 AM68 °FSunny.3 mph83%29.59 "Hg10 mi
6:30 AM66 °FSunny.3 mph83%29.59 "Hg10 mi
6:00 AM66 °FClear.3 mph83%29.59 "Hg10 mi
5:30 AM68 °FClear.3 mph83%29.59 "Hg10 mi
5:00 AM68 °FClear.3 mph83%29.59 "Hg10 mi
4:30 AM66 °FClear.1 mph88%29.59 "Hg10 mi
4:00 AM66 °FClear.3 mph88%29.59 "Hg10 mi
3:30 AM70 °FClear.3 mph78%29.59 "Hg10 mi
3:00 AM70 °FClear.3 mph78%29.59 "Hg10 mi
2:30 AM70 °FClear.3 mph78%29.59 "Hg10 mi
2:00 AM70 °FClear.3 mph78%29.59 "Hg10 mi
1:30 AM72 °FClear.3 mph73%29.59 "Hg10 mi
1:00 AM72 °FClear.3 mph73%29.62 "Hg10 mi
12:30 AM72 °FClear.3 mph78%29.62 "Hg10 mi
12:00 AM72 °FClear.6 mph78%29.62 "Hg10 mi
11:30 PM
Jul 21
75 °FClear.8 mph69%29.65 "Hg10 mi
11:00 PM75 °FClear.6 mph69%29.65 "Hg10 mi
10:30 PM77 °FSunny.6 mph61%29.65 "Hg10 mi
10:00 PM77 °FSunny.6 mph61%29.65 "Hg10 mi
9:30 PM79 °FSunny.6 mph58%29.65 "Hg10 mi
9:00 PM79 °FSunny.6 mph58%29.65 "Hg10 mi
8:30 PM84 °FSunny.6 mph48%29.65 "Hg10 mi
8:00 PM84 °FSunny.6 mph48%29.65 "Hg10 mi
7:30 PM88 °FPartly sunny.3 mph33%29.65 "HgN/A
7:00 PM88 °FPartly sunny.No wind33%29.65 "HgN/A
6:30 PM88 °FOvercast.No wind35%29.65 "HgN/A
6:00 PM88 °FOvercast.No wind35%29.68 "HgN/A
5:30 PM88 °FOvercast.No wind35%29.68 "HgN/A
5:00 PM88 °FOvercast.3 mph35%29.68 "HgN/A
4:30 PM88 °FOvercast.3 mph35%29.68 "HgN/A
4:00 PM88 °FOvercast.6 mph35%29.68 "HgN/A
3:30 PM88 °FOvercast.3 mph35%29.68 "HgN/A
3:00 PM88 °FOvercast.3 mph35%29.68 "HgN/A
2:30 PM86 °FOvercast.3 mph38%29.68 "HgN/A
2:00 PM86 °FOvercast.6 mph38%29.71 "HgN/A
Weather by CustomWeather, © 2014

See weather overviewHow to use our weather pages